Weather History for KPRX - July, 2013

Change the Weather History Date:

Monday, July 15, 2013

  Actual Average (KTXK) Record (KTXK)
Temperature  
Mean Temperature 73 °F 82 °F  
Max Temperature 78 °F 93 °F 107 °F (1939)
Min Temperature 68 °F 72 °F 58 °F (1990)
Degree Days  
Heating Degree Days 0 0  
Month to date heating degree days 0  
Since 1 June heating degree days 0  
Since 1 July heating degree days 0  
Cooling Degree Days 8 17  
Month to date cooling degree days 250  
Year to date cooling degree days 975  
Since 1 June cooling degree days 655  
Growing Degree Days 23 (Base 50)    
Moisture  
Dew Point 64 °F    
Average Humidity 76    
Maximum Humidity 83    
Minimum Humidity 61    
Precipitation  
Precipitation 0.27 in 0.12 in 1.70 in (1989)
Month to date precipitation 1.90  
Year to date precipitation 26.97  
Snow  
Snow 0.00 in - - ()
Month to date snowfall  
Since 1 June snowfall  
Since 1 July snowfall  
Snow Depth -    
Sea Level Pressure  
Sea Level Pressure 30.07 in    
Wind  
Wind Speed 8 mph (East)    
Max Wind Speed 20 mph    
Max Gust Speed 24 mph    
Visibility 10 miles    
Events      
T = Trace of Precipitation, MM = Missing Value Source: NWS Daily Summary

Daily Weather History Graph

Daily Weather History Graph

Search for Another Location

Airport or City:

Trip Planner

Search our weather history database for the weather conditions in past years. The results will help you decide how hot, cold, wet, or windy it might be!

Date:

Astronomy

Jul. 15, 2013 Rise Set
Actual Time 6:22 AM CDT 8:32 PM CDT
Civil Twilight 5:54 AM CDT 9:00 PM CDT
Nautical Twilight 5:19 AM CDT 9:35 PM CDT
Astronomical Twilight 4:42 AM CDT 10:12 PM CDT
Moon 1:19 PM CDT (7/15) 12:08 AM CDT (7/15)
Length of Visible Light 15h 06m
Length of Day
14h 09m
Waxing Crescent, 45% of the Moon is Illuminated
Jul 15
Waxing Crescent
Jul 15
First Quarter
Jul 22
Full
Jul 29
Last Quarter
Aug 6
New

Hourly Weather History & Observations

Time (CDT) Temp. Dew Point Humidity Pressure Visibility Wind Dir Wind Speed Gust Speed Precip Events Conditions
12:15 AM 69.8 °F 62.6 °F 78% 30.00 in 9.0 mi NNW 8.1 mph - 0.01 in   Partly Cloudy
12:35 AM 69.8 °F 62.6 °F 78% 30.00 in 10.0 mi North 9.2 mph - 0.01 in   Scattered Clouds
12:55 AM 69.8 °F 62.6 °F 78% 29.99 in 10.0 mi North 9.2 mph - 0.01 in   Scattered Clouds
1:15 AM 69.8 °F 62.6 °F 78% 29.99 in 10.0 mi North 6.9 mph - N/A   Partly Cloudy
1:35 AM 69.8 °F 62.6 °F 78% 30.00 in 8.0 mi West 4.6 mph - N/A   Scattered Clouds
1:55 AM 68.0 °F 62.6 °F 83% 29.99 in 10.0 mi NNW 5.8 mph - 0.01 in   Overcast
2:15 AM 68.0 °F 62.6 °F 83% 29.99 in 7.0 mi NW 8.1 mph - 0.02 in   Overcast
2:35 AM 68.0 °F 62.6 °F 83% 30.00 in 8.0 mi North 10.4 mph - 0.03 in   Mostly Cloudy
2:55 AM 68.0 °F 62.6 °F 83% 30.00 in 10.0 mi North 9.2 mph - 0.05 in   Mostly Cloudy
3:15 AM 68.0 °F 62.6 °F 83% 29.99 in 10.0 mi North 8.1 mph - 0.03 in   Mostly Cloudy
3:35 AM 68.0 °F 62.6 °F 83% 29.99 in 9.0 mi North 9.2 mph - 0.06 in   Overcast
3:55 AM 68.0 °F 62.6 °F 83% 29.99 in 9.0 mi NE 6.9 mph - 0.08 in   Mostly Cloudy
4:15 AM 68.0 °F 62.6 °F 83% 29.98 in 7.0 mi NE 5.8 mph - 0.02 in   Mostly Cloudy
4:35 AM 68.0 °F 62.6 °F 83% 29.98 in 7.0 mi NE 8.1 mph - 0.03 in   Mostly Cloudy
4:55 AM 68.0 °F 62.6 °F 83% 29.98 in 5.0 mi North 6.9 mph - 0.04 in   Partly Cloudy
5:15 AM 68.0 °F 62.6 °F 83% 29.98 in 6.0 mi NE 6.9 mph - N/A   Mostly Cloudy
5:35 AM 69.8 °F 64.4 °F 83% 29.97 in 5.0 mi ESE 19.6 mph - 0.08 in   Overcast
5:55 AM 68.0 °F 62.6 °F 83% 29.99 in 10.0 mi SSE 18.4 mph - 0.08 in   Overcast
6:15 AM 68.0 °F 62.6 °F 83% 30.00 in 10.0 mi South 15.0 mph 21.9 mph N/A   Overcast
6:35 AM 69.8 °F 62.6 °F 78% 30.02 in 10.0 mi South 15.0 mph 24.2 mph N/A   Overcast
6:55 AM 69.8 °F 62.6 °F 78% 30.03 in 10.0 mi South 13.8 mph 23.0 mph N/A   Overcast
7:15 AM 69.8 °F 62.6 °F 78% 30.04 in 10.0 mi South 12.7 mph - N/A   Overcast
7:35 AM 69.8 °F 62.6 °F 78% 30.05 in 10.0 mi SSE 12.7 mph - N/A   Overcast
7:55 AM 69.8 °F 62.6 °F 78% 30.06 in 10.0 mi South 9.2 mph - N/A   Overcast
8:15 AM 69.8 °F 62.6 °F 78% 30.07 in 10.0 mi SSE 9.2 mph - N/A   Mostly Cloudy
8:35 AM 69.8 °F 62.6 °F 78% 30.08 in 10.0 mi SSE 8.1 mph - N/A   Partly Cloudy
8:55 AM 69.8 °F 62.6 °F 78% 30.09 in 10.0 mi SSE 8.1 mph - N/A   Clear
9:15 AM 69.8 °F 62.6 °F 78% 30.10 in 10.0 mi SSE 8.1 mph - N/A   Clear
9:35 AM 69.8 °F 62.6 °F 78% 30.10 in 10.0 mi SSE 6.9 mph - N/A   Clear
9:55 AM 69.8 °F 64.4 °F 83% 30.11 in 10.0 mi SSE 5.8 mph - N/A   Clear
10:15 AM 69.8 °F 64.4 °F 83% 30.11 in 10.0 mi SE 5.8 mph - N/A   Clear
10:35 AM 71.6 °F 64.4 °F 78% 30.11 in 10.0 mi SE 3.5 mph - N/A   Clear
10:55 AM 71.6 °F 64.4 °F 78% 30.11 in 10.0 mi SE 6.9 mph - N/A   Partly Cloudy
11:15 AM 71.6 °F 64.4 °F 78% 30.11 in 10.0 mi ESE 4.6 mph - N/A   Scattered Clouds
11:35 AM 71.6 °F 64.4 °F 78% 30.11 in 10.0 mi ESE 6.9 mph - N/A   Partly Cloudy
11:55 AM 73.4 °F 64.4 °F 73% 30.12 in 10.0 mi East 6.9 mph - N/A   Scattered Clouds
12:15 PM 73.4 °F 64.4 °F 73% 30.12 in 10.0 mi East 8.1 mph - N/A   Partly Cloudy
12:35 PM 73.4 °F 64.4 °F 73% 30.12 in 10.0 mi East 8.1 mph - N/A   Scattered Clouds
12:55 PM 75.2 °F 62.6 °F 65% 30.12 in 10.0 mi East 5.8 mph - N/A   Scattered Clouds
1:15 PM 75.2 °F 62.6 °F 65% 30.12 in 10.0 mi ESE 5.8 mph - N/A   Clear
1:35 PM 75.2 °F 64.4 °F 69% 30.12 in 10.0 mi East 5.8 mph - N/A   Scattered Clouds
1:55 PM 75.2 °F 64.4 °F 69% 30.11 in 10.0 mi ENE 6.9 mph - N/A   Mostly Cloudy
2:15 PM 77.0 °F 64.4 °F 65% 30.11 in 10.0 mi ENE 8.1 mph - N/A   Mostly Cloudy
2:35 PM 77.0 °F 64.4 °F 65% 30.10 in 10.0 mi East 9.2 mph - N/A   Mostly Cloudy
2:55 PM 77.0 °F 64.4 °F 65% 30.10 in 10.0 mi NE 8.1 mph - N/A   Mostly Cloudy
3:15 PM 77.0 °F 64.4 °F 65% 30.09 in 10.0 mi NE 6.9 mph - N/A   Scattered Clouds
3:35 PM 78.8 °F 66.2 °F 65% 30.09 in 10.0 mi ENE 8.1 mph - N/A   Clear
3:55 PM 78.8 °F 64.4 °F 61% 30.09 in 10.0 mi ENE 6.9 mph - N/A   Clear
4:15 PM 77.0 °F 66.2 °F 69% 30.09 in 10.0 mi ENE 5.8 mph - N/A   Clear
4:35 PM 77.0 °F 66.2 °F 69% 30.08 in 10.0 mi ENE 8.1 mph - N/A   Clear
4:55 PM 77.0 °F 66.2 °F 69% 30.08 in 10.0 mi NE 6.9 mph - N/A   Clear
5:15 PM 77.0 °F 66.2 °F 69% 30.08 in 10.0 mi NE 8.1 mph - N/A   Clear
5:35 PM 75.2 °F 66.2 °F 73% 30.08 in 10.0 mi ENE 9.2 mph - N/A   Clear
5:55 PM 75.2 °F 66.2 °F 73% 30.08 in 10.0 mi NE 6.9 mph - N/A   Clear
6:15 PM 77.0 °F 66.2 °F 69% 30.08 in 10.0 mi ENE 6.9 mph - N/A   Clear
6:35 PM 77.0 °F 66.2 °F 69% 30.08 in 10.0 mi ENE 8.1 mph - N/A   Clear
6:55 PM 77.0 °F 68.0 °F 74% 30.08 in 10.0 mi ENE 6.9 mph - N/A   Clear
7:15 PM 77.0 °F 68.0 °F 74% 30.09 in 10.0 mi East 6.9 mph - N/A   Partly Cloudy
7:35 PM 77.0 °F 68.0 °F 74% 30.09 in 10.0 mi ESE 5.8 mph - N/A   Clear
7:55 PM 75.2 °F 68.0 °F 78% 30.09 in 10.0 mi East 8.1 mph - N/A   Clear
8:15 PM 75.2 °F 66.2 °F 73% 30.10 in 10.0 mi ESE 11.5 mph - N/A   Clear
8:35 PM 73.4 °F 66.2 °F 78% 30.10 in 10.0 mi ESE 9.2 mph - N/A   Clear
8:55 PM 73.4 °F 66.2 °F 78% 30.11 in 10.0 mi East 8.1 mph - N/A   Clear
9:15 PM 73.4 °F 64.4 °F 73% 30.11 in 10.0 mi East 5.8 mph - N/A   Clear
9:35 PM 71.6 °F 64.4 °F 78% 30.11 in 10.0 mi East 6.9 mph - N/A   Clear
9:55 PM 71.6 °F 64.4 °F 78% 30.12 in 10.0 mi East 5.8 mph - N/A   Clear
10:15 PM 71.6 °F 64.4 °F 78% 30.12 in 10.0 mi East 4.6 mph - N/A   Clear
10:35 PM 71.6 °F 64.4 °F 78% 30.13 in 10.0 mi East 8.1 mph - N/A   Clear
10:55 PM 71.6 °F 64.4 °F 78% 30.13 in 10.0 mi East 6.9 mph - N/A   Clear
11:15 PM 71.6 °F 64.4 °F 78% 30.13 in 10.0 mi East 8.1 mph - N/A   Clear
11:35 PM 71.6 °F 64.4 °F 78% 30.14 in 10.0 mi East 8.1 mph - N/A   Clear
11:55 PM 71.6 °F 64.4 °F 78% 30.14 in 10.0 mi East 8.1 mph - N/A   Clear